Temperature
21 21 20 20 20 20 22 24 25 25 24 24 24 23 22 22 21 20 20 20 20 20 20 20 20 20 19 19 19 19 19 19 19 19 19 19 19 19 19 19 19 19 19 19 19 19 18 18 18
21 21 20 20 20 21 23 24 25 25 25 24 24 23 22 21 21 20 20 20 20 20 20 20 20 20 19 19 19 19 19 19 19 19 19 19 19 19 19 19 19 18 19 19 19 19 18 18 18
22 21 20 20 21 22 24 25 25 25 25 25 24 23 22 21 21 20 20 20 20 20 20 20 20 20 19 19 19 19 19 19 19 19 19 19 19 19 19 19 19 19 19 19 19 18 18 18 18
22 21 21 21 23 24 25 25 25 25 25 24 23 22 22 21 21 21 20 21 20 20 20 20 20 20 19 19 19 19 19 19 19 19 19 19 19 19 19 19 19 19 19 19 18 18 18 18 18
22 21 21 22 24 26 26 26 26 25 25 24 23 22 21 21 21 21 21 20 20 20 20 20 20 20 19 19 19 19 19 19 19 19 19 19 19 19 19 19 19 18 18 18 18 18 18 18 18
22 21 22 23 25 26 26 26 26 25 24 23 22 21 21 21 21 21 21 20 20 20 20 20 20 20 19 19 19 19 19 19 19 19 19 19 19 19 19 19 18 18 18 18 18 18 18 18 18
22 21 23 24 25 26 27 26 26 25 24 24 23 21 21 21 21 21 20 20 20 20 20 20 20 20 19 19 19 19 19 19 19 19 19 19 19 19 19 19 19 18 18 18 18 18 18 18 18
24 22 23 24 25 26 27 27 26 25 25 24 23 21 21 21 21 21 20 20 20 20 20 20 20 20 19 19 19 19 19 19 19 19 19 19 19 19 19 18 18 18 18 18 18 18 18 18 18
25 22 23 25 25 26 27 26 26 25 25 24 23 23 22 21 21 21 20 20 20 20 20 20 20 20 19 19 19 19 19 19 19 19 18 18 19 19 19 18 18 18 18 18 18 18 18 18 18
24 22 25 26 26 26 27 26 26 25 24 23 23 22 22 21 21 21 20 20 20 20 20 20 20 20 19 19 19 19 19 19 19 19 19 19 19 18 18 18 18 18 18 18 18 18 18 18 18
25 24 26 27 28 28 27 27 26 25 23 23 22 22 22 22 21 21 21 20 20 20 20 20 20 20 20 19 19 19 19 19 19 19 19 19 18 18 18 18 18 18 18 18 18 18 18 18 18
26 27 28 27 28 28 27 27 26 25 24 24 24 23 22 22 21 21 21 21 20 20 20 20 20 20 20 19 19 19 19 19 19 19 19 19 18 18 18 18 18 18 18 18 18 18 18 18 18
27 28 28 28 28 28 28 27 26 25 25 24 24 23 22 22 22 21 21 21 21 21 20 20 20 20 20 20 19 19 19 19 19 19 18 18 18 18 18 18 18 18 18 18 18 18 18 18 18
28 28 28 28 28 28 27 26 26 25 25 24 23 23 23 22 22 22 21 21 21 21 20 20 20 20 20 20 19 19 19 19 19 19 19 19 19 19 18 18 18 18 18 18 18 18 18 18 18
29 28 28 28 28 28 27 26 25 25 25 24 24 23 23 23 23 22 22 22 21 21 21 20 20 20 20 20 20 19 19 19 19 19 19 19 19 19 19 19 18 18 18 18 18 18 18 18 18
27 27 26 27 28 28 26 25 26 26 25 24 24 24 23 23 23 23 22 22 22 21 21 21 20 20 20 20 19 19 19 19 19 19 19 19 19 19 19 19 19 18 18 18 18 18 18 18 18
25 25 26 27 28 28 26 25 26 26 25 25 24 24 24 23 23 23 23 22 22 22 21 21 21 20 20 20 20 20 19 19 19 19 19 19 19 19 19 19 19 19 18 18 18 18 18 18 18
25 25 26 27 28 28 26 25 25 26 25 25 25 24 24 24 24 23 23 23 22 22 22 21 21 21 20 20 20 20 19 19 19 19 19 19 19 19 19 19 19 19 18 18 18 18 18 18 18
27 27 26 27 29 27 26 26 25 26 26 25 25 24 24 24 24 24 23 23 23 22 22 22 21 21 21 20 20 20 20 19 19 19 19 19 19 19 19 19 19 19 18 18 18 18 18 18 18
28 27 27 28 28 27 26 26 26 26 26 26 25 25 24 24 24 24 23 23 23 23 22 22 21 21 21 21 20 20 20 19 19 19 19 19 19 19 19 19 19 19 19 18 18 18 18 18 18
28 27 27 27 28 27 26 25 25 26 26 26 26 26 25 25 24 24 24 23 23 23 23 22 22 21 21 21 20 20 20 19 19 19 19 19 19 19 19 19 19 19 18 19 18 18 18 18 18
27 29 29 29 26 24 25 23 24 24 25 25 26 25 25 25 25 25 24 24 24 23 23 23 22 22 21 21 21 20 20 20 20 19 19 19 19 19 19 19 19 18 18 18 18 18 18 18 18
29 29 28 28 26 24 25 24 23 24 24 25 25 26 26 25 25 25 25 24 24 23 23 23 22 22 21 21 21 20 20 20 20 19 19 19 19 19 19 19 18 18 18 18 18 18 18 18 18
30 28 26 24 23 24 25 24 24 23 24 25 25 26 26 26 25 25 25 24 24 24 23 23 22 22 22 21 21 21 20 20 20 19 19 19 19 19 19 19 18 18 18 18 18 18 18 18 18
28 24 23 24 22 23 24 24 24 25 26 26 25 26 26 26 26 25 25 24 24 24 23 23 22 22 22 21 21 21 21 20 20 20 19 19 19 19 19 19 18 18 18 18 18 18 18 18 18
27 25 24 24 23 23 24 24 24 26 26 27 27 26 26 26 26 25 25 25 24 24 23 23 23 22 22 22 21 21 21 20 20 20 19 19 19 19 19 19 19 18 18 18 18 18 18 18 17
28 25 24 22 23 23 23 24 25 26 25 26 26 26 26 26 26 25 25 25 25 24 24 23 23 22 22 22 21 21 21 20 20 20 19 19 19 19 19 18 18 18 18 18 18 18 18 17 17
27 26 22 22 23 23 24 24 23 24 24 25 24 25 25 25 25 25 25 25 25 24 24 23 23 23 22 22 21 21 21 20 20 19 19 19 19 19 18 18 18 18 18 18 18 17 17 17 17
27 26 23 20 21 22 23 23 25 24 24 24 24 25 25 25 25 25 25 25 24 24 24 23 22 22 22 21 21 21 20 20 20 19 19 19 19 19 18 18 18 18 18 17 17 17 17 17 17
27 26 23 23 22 21 21 22 25 23 24 24 24 25 25 25 25 25 25 25 24 23 23 23 22 22 22 21 21 21 20 20 20 20 19 19 19 19 18 18 18 18 18 17 17 17 17 17 17
Wind_Speed
9 6 3 1 1 3 3 3 5 6 6 7 10 10 9 7 4 5 3 9 9 8 8 10 12 12 12 12 12 12 13 13 13 13 13 13 14 14 14 13 13 13 13 12 12 12 12 12 11
6 4 1 1 3 3 3 4 8 8 9 10 10 10 9 7 6 8 5 8 11 10 9 10 12 12 12 12 12 12 12 13 13 12 12 12 13 13 13 12 11 11 11 11 10 11 11 11 11
5 3 0 1 1 3 4 5 9 10 9 7 6 6 6 5 6 5 7 11 10 8 9 11 13 13 12 11 11 12 12 12 12 12 12 12 12 11 11 11 10 10 10 10 9 10 10 10 10
2 1 1 2 2 1 5 7 9 11 9 8 8 7 5 4 5 7 12 12 11 7 8 11 13 13 12 11 12 12 12 12 12 11 11 11 10 10 10 9 9 9 9 9 9 8 8 9 9
1 1 2 2 1 3 6 9 9 10 6 8 10 7 5 4 10 14 13 12 10 7 8 10 12 13 12 12 12 12 12 12 12 11 10 10 9 9 9 8 8 8 8 9 9 8 8 8 9
1 2 3 2 3 4 6 9 10 11 11 10 9 7 3 5 10 12 11 11 10 9 8 9 12 12 12 11 11 12 12 12 11 11 10 9 9 8 8 7 7 8 8 8 8 8 8 8 8
2 2 1 3 4 5 6 8 9 10 9 7 8 6 4 5 8 10 10 10 8 8 7 7 8 10 11 11 11 12 11 11 11 10 10 9 8 7 7 7 7 7 8 9 9 8 8 8 8
3 2 1 2 5 4 6 7 8 10 7 9 7 7 6 7 9 9 9 8 8 7 6 6 7 8 8 9 10 11 11 11 11 10 9 9 8 7 7 7 7 7 8 8 9 9 9 9 8
2 3 1 2 5 4 7 9 6 7 9 6 6 7 9 11 10 10 8 6 6 6 5 5 5 6 7 7 9 10 10 10 10 9 9 8 6 6 6 6 7 7 7 8 8 9 9 9 9
4 3 5 5 6 7 8 10 7 7 9 8 9 10 12 10 11 11 8 7 6 6 6 5 6 6 7 7 7 6 7 7 8 7 7 6 6 6 6 7 7 7 7 8 9 9 9 8 6
4 5 3 2 5 7 8 7 5 9 6 10 14 14 11 10 9 9 8 7 7 7 6 6 6 7 7 5 6 5 5 5 6 6 6 6 4 4 4 4 4 5 5 5 6 6 5 5 5
4 4 4 2 4 6 7 7 7 7 8 13 16 15 12 10 9 9 8 7 6 6 6 5 5 5 5 5 5 5 4 4 4 5 6 5 3 2 2 3 3 3 3 3 3 3 4 4 5
4 3 2 3 4 6 8 9 8 7 11 15 15 14 12 10 9 7 8 7 7 6 5 5 5 5 5 4 3 4 4 4 4 4 5 5 4 3 2 2 3 3 4 3 2 3 3 3 4
3 3 3 3 4 6 9 7 7 8 14 15 14 12 11 11 9 7 7 6 7 7 6 5 5 5 5 4 3 3 4 4 4 4 4 5 5 4 3 2 2 3 3 3 3 2 2 2 3
1 3 1 2 4 5 9 5 6 12 14 13 13 12 11 10 10 10 10 8 8 7 6 5 6 5 5 5 4 3 3 4 4 4 5 4 4 4 3 2 2 2 3 3 2 2 1 1 2
3 3 0 4 4 5 7 5 7 12 13 12 11 11 10 9 10 10 10 9 8 7 7 6 7 6 5 5 4 3 3 4 3 4 5 4 4 4 3 2 2 2 2 2 2 1 1 2 2
3 1 2 3 3 5 5 5 8 11 12 12 11 10 10 9 8 9 10 10 9 8 8 7 6 6 5 5 4 3 3 3 3 4 4 4 4 4 3 1 1 2 1 1 2 1 1 2 2
4 2 2 3 3 5 5 5 9 11 11 12 11 10 9 10 9 9 10 10 9 8 8 7 7 6 5 4 3 3 2 2 2 3 4 4 4 4 3 1 1 2 1 1 1 1 1 1 1
4 3 3 4 3 5 5 7 10 11 10 10 10 10 10 10 8 8 9 9 9 8 8 8 7 6 5 3 3 3 2 2 2 2 4 5 4 4 3 1 1 2 2 2 1 1 0 1 0
2 1 2 3 2 4 5 5 8 10 12 13 13 12 12 9 7 8 8 8 9 9 8 8 7 6 5 4 3 3 3 2 2 2 2 4 4 3 3 2 2 2 2 1 1 1 0 1 0
3 3 4 3 0 3 5 2 2 4 5 8 10 11 12 13 13 12 11 10 9 9 9 9 8 7 6 5 3 3 2 2 1 1 1 1 3 3 2 2 2 2 2 2 2 2 2 1 1
4 5 3 1 2 1 3 1 5 5 4 6 9 10 11 11 11 11 12 11 11 10 9 8 8 7 6 6 5 5 4 3 3 3 2 1 2 2 3 2 2 2 2 2 2 2 2 2 1
5 2 1 0 1 2 2 3 6 3 5 6 8 11 12 12 13 13 13 13 11 10 9 7 7 6 6 6 6 5 4 3 2 2 2 1 0 1 1 2 2 2 2 2 2 2 2 2 2
1 4 6 5 5 2 3 2 5 5 9 7 7 10 11 12 13 12 12 10 10 9 9 8 7 6 6 6 6 6 6 5 4 3 3 2 1 0 0 1 1 1 1 2 2 2 2 2 2
3 5 5 6 5 4 3 1 6 7 7 9 9 9 9 9 11 11 10 10 10 10 9 8 8 7 6 6 6 6 6 6 5 4 4 3 2 1 2 1 1 1 1 1 1 1 1 1 1
3 8 6 3 4 4 3 1 6 5 4 4 6 8 9 8 9 10 10 10 11 11 10 10 9 8 8 8 7 5 5 4 4 4 4 4 3 3 2 2 1 2 2 1 1 0 1 1 2
2 2 7 7 1 1 3 3 6 3 3 2 4 5 7 8 8 9 9 9 10 11 11 11 10 9 9 9 7 6 5 4 4 4 3 3 3 3 2 2 1 1 1 1 1 1 1 1 1
4 5 5 5 3 1 3 3 4 3 2 0 3 5 5 6 7 7 7 8 9 9 9 9 9 8 7 7 7 6 5 5 4 4 3 3 3 2 2 2 2 2 1 1 1 1 1 1 2
2 2 5 4 5 6 2 5 5 6 5 4 4 4 6 6 7 7 6 7 8 7 7 7 6 6 5 6 6 5 5 5 5 4 4 3 3 3 3 3 3 2 2 2 2 2 2 1 2
3 3 5 4 3 4 4 6 4 3 3 4 4 2 5 6 7 7 6 5 5 6 6 7 6 6 5 5 5 6 5 5 5 4 4 4 4 3 3 2 2 3 3 3 3 3 3 3 3
Wind_Direction
174 163 160 219 39 44 70 84 96 87 62 63 74 84 81 65 91 127 158 148 140 144 147 141 136 130 127 126 125 121 119 119 120 120 120 123 126 128 128 129 132 141 144 147 150 152 154 157 159
166 167 188 9 66 74 65 92 89 96 120 106 81 78 75 68 82 111 125 145 142 142 143 141 138 133 131 130 130 127 125 125 126 126 126 126 128 130 131 133 134 139 145 150 153 157 159 162 162
175 186 193 33 65 130 119 108 102 97 105 97 87 63 70 99 106 124 147 141 133 134 142 145 140 137 134 133 134 132 131 130 131 131 130 131 133 135 135 136 139 144 147 150 153 159 164 167 166
160 147 31 53 55 138 127 124 113 105 83 80 93 71 60 94 122 130 135 133 131 133 143 146 142 140 136 132 134 134 135 135 135 135 135 136 137 140 141 143 145 150 155 156 157 162 171 173 174
132 91 39 48 64 97 113 119 112 107 106 95 95 94 79 78 111 123 132 134 133 137 145 147 144 142 140 136 134 137 138 140 140 140 140 141 143 146 150 153 156 161 165 166 168 172 174 177 181
79 77 71 76 85 81 110 119 104 99 108 107 102 103 96 116 117 132 133 136 139 141 146 144 144 144 143 141 140 140 142 145 145 146 147 147 148 151 158 163 168 172 174 175 176 179 182 187 190
137 97 135 130 104 95 109 111 112 114 116 120 123 103 123 130 136 139 135 136 137 139 141 143 148 148 146 145 147 145 146 150 152 153 155 156 159 162 167 174 181 187 189 191 189 188 191 197 202
170 104 14 95 116 116 124 111 120 119 115 128 119 125 153 168 149 138 134 134 137 141 143 146 151 151 153 151 151 156 158 159 161 164 166 170 173 178 181 187 190 194 199 202 199 198 203 206 209
155 92 176 184 148 149 133 113 107 97 106 110 105 128 152 150 131 125 123 122 135 146 158 155 160 165 164 162 166 168 168 172 173 176 178 181 183 187 194 199 202 203 206 208 203 205 209 214 219
134 135 203 196 166 149 137 130 131 102 97 98 99 114 134 135 129 131 138 142 148 158 167 167 170 176 178 174 172 177 178 181 182 183 184 183 188 198 202 204 210 210 208 207 210 212 215 220 223
148 171 191 159 160 136 127 133 119 120 116 141 141 144 145 137 136 141 151 158 163 167 167 169 172 174 180 179 168 178 183 183 187 189 186 183 183 199 206 197 213 211 207 210 213 217 222 222 219
146 206 178 171 143 123 134 130 116 133 152 151 147 150 150 148 154 157 161 166 166 156 163 166 160 159 169 165 169 171 172 175 184 187 178 169 167 171 177 186 203 203 201 198 202 210 226 228 224
164 192 138 135 115 126 121 127 122 133 137 141 145 149 155 160 164 166 163 160 156 153 161 163 151 150 155 152 166 159 169 169 173 169 171 167 164 169 179 196 193 198 196 192 195 213 219 227 233
186 160 159 141 120 124 123 125 114 144 142 144 148 155 163 167 165 157 156 156 161 160 163 161 155 152 146 145 150 148 154 155 148 162 172 168 166 168 172 177 180 196 200 196 197 208 207 229 233
78 95 30 149 133 128 109 100 147 153 146 150 156 162 168 171 166 164 166 163 165 162 158 160 157 149 145 145 150 143 152 150 156 167 168 165 158 157 162 169 187 206 204 189 180 182 180 228 241
11 59 341 256 161 143 113 166 177 155 151 160 166 168 168 171 171 170 167 163 163 157 152 161 153 145 145 138 137 138 150 149 158 168 167 165 158 154 154 155 192 198 177 163 161 170 191 238 248
11 326 255 268 192 151 130 174 180 167 160 168 172 171 167 169 171 169 168 164 162 159 153 153 145 147 151 147 140 137 144 143 154 161 159 159 153 159 152 146 180 167 141 157 194 168 187 216 247
267 241 256 249 233 148 140 173 174 178 172 176 177 175 170 172 180 173 166 162 160 158 153 153 149 152 146 137 118 107 117 136 149 158 162 163 161 160 156 154 170 148 131 149 191 188 211 216 226
222 212 223 252 212 134 154 172 183 186 177 180 181 179 178 183 182 167 163 162 157 158 155 156 155 160 146 136 140 139 159 167 171 181 172 166 167 166 158 160 163 154 159 195 190 168 223 311 120
208 251 249 274 206 134 161 182 189 191 190 186 183 184 182 180 167 169 167 169 169 170 167 162 165 166 163 164 164 161 159 172 172 176 171 178 177 181 170 167 165 166 162 171 175 138 162 282 104
276 222 233 227 351 75 107 353 242 207 197 192 185 182 180 179 178 177 177 184 177 177 177 174 174 171 171 164 141 121 99 87 102 139 181 196 181 175 162 148 150 155 154 179 201 184 181 232 293
276 248 209 189 80 297 130 189 270 214 213 200 191 187 186 185 181 181 181 185 188 187 180 172 170 171 172 160 155 154 156 168 192 184 186 192 162 152 147 139 133 146 155 178 206 179 189 179 232
245 246 91 347 107 46 38 129 271 207 219 215 197 194 191 187 184 185 187 189 187 180 173 170 166 168 166 163 163 159 162 175 173 153 147 164 183 161 153 140 138 156 172 190 203 199 202 193 195
237 30 21 41 64 24 254 163 264 217 209 208 205 197 190 187 186 185 189 183 179 174 170 171 169 173 170 167 164 163 165 160 149 155 166 181 202 234 223 150 160 174 189 200 207 204 201 204 194
54 76 25 1 7 265 276 116 252 243 214 194 196 193 186 184 182 179 181 178 176 173 174 172 172 177 177 173 174 172 171 166 167 175 181 183 197 221 235 206 192 194 211 208 190 187 218 197 190
211 136 150 202 235 280 336 241 267 262 222 187 175 173 173 170 172 174 177 176 178 176 175 175 177 183 185 182 180 176 170 170 177 180 179 189 205 213 213 207 210 211 210 205 175 197 230 214 221
164 168 165 143 146 357 309 306 324 342 35 104 142 153 167 169 169 172 174 174 174 175 179 179 180 185 190 186 174 172 172 174 183 182 178 189 204 211 205 205 212 208 203 204 185 221 254 253 249
150 151 87 107 141 277 302 288 245 259 313 317 150 153 163 167 166 172 175 176 178 178 178 175 175 178 181 177 176 178 177 179 180 175 182 196 214 214 200 213 215 213 212 200 181 214 252 261 282
7 51 97 114 148 157 227 272 235 204 202 173 164 158 156 162 166 167 172 179 178 169 165 167 172 169 167 171 171 171 177 180 177 181 190 194 212 207 204 207 203 213 219 213 197 221 225 231 266
161 164 134 141 222 169 168 258 279 191 183 152 148 162 162 166 167 162 155 142 151 163 164 164 166 164 166 170 163 171 170 169 175 189 198 193 196 199 206 210 215 222 225 219 214 231 239 237 241
Height
1512 1512 1512 1513 1513 1518 1518 1509 1502 1502 1503 1504 1502 1503 1506 1510 1514 1521 1518 1516 1517 1517 1516 1516 1516 1516 1516 1517 1517 1517 1517 1518 1519 1520 1521 1522 1523 1524 1525 1526 1527 1529 1530 1532 1533 1534 1535 1536 1537
1512 1512 1514 1513 1518 1528 1520 1507 1504 1503 1504 1504 1505 1507 1508 1512 1513 1515 1516 1517 1518 1517 1517 1517 1517 1517 1517 1518 1518 1518 1519 1519 1520 1521 1522 1523 1524 1525 1526 1527 1528 1529 1531 1532 1533 1534 1535 1536 1538
1512 1512 1515 1515 1519 1523 1517 1507 1504 1504 1504 1503 1507 1509 1511 1514 1515 1516 1517 1517 1518 1518 1518 1518 1518 1518 1518 1518 1519 1519 1520 1520 1521 1522 1523 1524 1525 1526 1527 1528 1529 1530 1532 1532 1533 1534 1535 1536 1537
1513 1514 1515 1518 1518 1510 1506 1505 1503 1504 1506 1506 1507 1512 1515 1516 1516 1517 1518 1518 1519 1519 1519 1519 1519 1519 1519 1519 1520 1520 1521 1521 1522 1523 1524 1525 1526 1527 1528 1529 1530 1531 1532 1533 1533 1534 1535 1536 1537
1514 1514 1518 1521 1514 1505 1502 1503 1503 1504 1507 1509 1509 1514 1517 1518 1518 1518 1519 1519 1520 1520 1520 1520 1520 1520 1521 1521 1521 1521 1522 1523 1523 1524 1525 1526 1527 1528 1529 1529 1530 1531 1532 1532 1533 1534 1535 1536 1537
1514 1515 1523 1525 1514 1505 1503 1503 1504 1506 1509 1511 1512 1515 1519 1520 1519 1520 1520 1520 1521 1520 1521 1521 1521 1521 1522 1522 1522 1522 1523 1524 1525 1525 1526 1527 1528 1528 1529 1530 1530 1531 1531 1532 1533 1533 1534 1535 1536
1514 1516 1521 1518 1514 1509 1505 1504 1505 1507 1510 1511 1512 1515 1520 1520 1520 1521 1521 1521 1521 1522 1522 1522 1522 1523 1523 1523 1523 1524 1524 1525 1526 1526 1527 1527 1528 1529 1529 1530 1530 1530 1531 1531 1532 1533 1534 1534 1536
1513 1516 1519 1517 1514 1511 1505 1505 1506 1507 1510 1512 1512 1515 1518 1520 1521 1521 1522 1522 1522 1522 1523 1523 1523 1524 1524 1524 1525 1525 1526 1526 1527 1527 1527 1528 1528 1529 1529 1529 1530 1530 1530 1530 1531 1532 1533 1534 1535
1512 1519 1522 1515 1512 1508 1504 1505 1508 1509 1510 1512 1513 1514 1516 1519 1520 1521 1522 1522 1523 1523 1523 1524 1524 1524 1525 1525 1526 1526 1527 1527 1527 1528 1528 1528 1528 1529 1529 1529 1529 1529 1529 1529 1530 1531 1533 1533 1534
1510 1519 1513 1503 1503 1503 1504 1505 1507 1510 1511 1514 1515 1516 1518 1519 1520 1521 1521 1522 1522 1523 1523 1524 1524 1524 1525 1526 1526 1526 1527 1527 1527 1528 1528 1528 1528 1529 1529 1529 1529 1529 1529 1529 1530 1531 1532 1533 1533
1507 1510 1503 1500 1500 1501 1503 1505 1507 1509 1513 1513 1514 1516 1518 1519 1520 1520 1521 1521 1521 1522 1523 1523 1524 1525 1525 1526 1526 1527 1527 1527 1528 1528 1528 1528 1528 1528 1528 1528 1528 1528 1529 1529 1530 1530 1531 1532 1532
1504 1502 1501 1500 1500 1501 1503 1505 1507 1508 1510 1512 1513 1515 1517 1518 1519 1519 1520 1520 1521 1522 1523 1523 1524 1525 1525 1526 1526 1527 1527 1527 1527 1528 1528 1528 1528 1528 1528 1528 1528 1528 1528 1529 1529 1529 1530 1531 1531
1503 1501 1500 1500 1500 1501 1502 1504 1507 1509 1511 1513 1514 1516 1517 1518 1518 1519 1519 1519 1520 1521 1522 1523 1524 1525 1525 1526 1526 1527 1527 1527 1527 1527 1527 1527 1527 1527 1527 1527 1528 1528 1528 1528 1529 1529 1529 1530 1530
1501 1500 1500 1500 1500 1501 1503 1506 1508 1511 1512 1513 1515 1516 1517 1517 1518 1519 1519 1519 1519 1520 1522 1523 1524 1525 1525 1526 1526 1527 1527 1528 1527 1527 1527 1527 1527 1527 1527 1527 1527 1527 1528 1528 1528 1529 1529 1529 1529
1500 1502 1502 1500 1500 1503 1505 1511 1509 1510 1512 1514 1515 1516 1517 1517 1518 1518 1519 1519 1519 1521 1522 1523 1524 1525 1525 1526 1527 1527 1527 1528 1527 1528 1528 1528 1528 1527 1527 1527 1527 1527 1527 1528 1528 1528 1528 1528 1527
1502 1507 1513 1503 1500 1503 1509 1520 1510 1511 1511 1513 1514 1515 1516 1517 1517 1518 1519 1519 1520 1521 1522 1523 1524 1525 1525 1526 1526 1527 1527 1528 1528 1528 1528 1528 1528 1528 1527 1526 1526 1526 1526 1527 1527 1527 1527 1526 1526
1513 1520 1517 1507 1499 1501 1508 1515 1509 1510 1510 1512 1513 1514 1515 1516 1517 1518 1518 1519 1520 1521 1521 1522 1523 1524 1525 1526 1526 1527 1527 1528 1528 1528 1528 1528 1528 1528 1527 1526 1526 1526 1526 1526 1526 1526 1526 1525 1525
1524 1521 1516 1512 1501 1501 1507 1510 1507 1508 1509 1510 1512 1513 1514 1515 1516 1517 1518 1519 1520 1521 1521 1522 1523 1524 1525 1525 1526 1527 1527 1527 1528 1528 1528 1528 1528 1527 1527 1526 1526 1526 1525 1526 1526 1525 1525 1524 1524
1508 1513 1515 1507 1497 1501 1507 1508 1506 1507 1508 1509 1510 1511 1512 1513 1515 1516 1518 1519 1520 1520 1521 1521 1522 1523 1524 1525 1525 1526 1526 1527 1528 1528 1528 1528 1528 1527 1527 1526 1526 1525 1525 1525 1525 1525 1524 1524 1523
1505 1512 1512 1503 1497 1502 1507 1507 1504 1504 1504 1505 1507 1509 1510 1512 1514 1516 1517 1518 1518 1519 1520 1521 1521 1522 1523 1524 1525 1525 1526 1527 1527 1528 1528 1528 1528 1527 1527 1526 1525 1525 1524 1524 1524 1524 1523 1523 1523
1505 1508 1507 1506 1501 1501 1509 1516 1510 1505 1505 1505 1505 1506 1508 1509 1511 1513 1514 1515 1517 1518 1519 1520 1521 1521 1522 1523 1524 1525 1526 1527 1527 1527 1527 1527 1527 1527 1526 1526 1525 1525 1524 1524 1523 1523 1523 1522 1522
1509 1496 1496 1500 1511 1520 1514 1535 1517 1507 1506 1504 1504 1505 1506 1508 1509 1510 1511 1513 1514 1516 1518 1519 1520 1521 1522 1523 1523 1524 1524 1525 1526 1526 1527 1527 1527 1527 1526 1525 1525 1524 1524 1523 1523 1523 1522 1522 1521
1496 1490 1494 1499 1510 1520 1517 1530 1523 1508 1509 1504 1502 1503 1503 1505 1506 1508 1509 1510 1512 1515 1516 1518 1519 1520 1521 1521 1522 1523 1524 1524 1525 1526 1526 1526 1526 1526 1526 1525 1524 1523 1523 1523 1523 1522 1521 1521 1520
1488 1495 1501 1508 1518 1534 1522 1528 1526 1512 1503 1500 1499 1500 1500 1502 1504 1506 1508 1509 1511 1513 1515 1516 1517 1518 1519 1520 1521 1522 1523 1523 1524 1525 1525 1525 1525 1525 1525 1524 1523 1523 1522 1522 1521 1521 1520 1520 1519
1492 1514 1535 1538 1545 1539 1520 1524 1520 1499 1493 1493 1495 1496 1497 1499 1501 1503 1506 1507 1509 1511 1513 1514 1515 1517 1518 1519 1520 1521 1522 1522 1523 1523 1524 1524 1524 1524 1523 1523 1522 1522 1521 1521 1520 1519 1519 1518 1518
1496 1509 1536 1548 1550 1539 1523 1525 1510 1492 1490 1490 1491 1493 1495 1497 1499 1501 1503 1505 1507 1509 1511 1512 1514 1515 1517 1517 1518 1520 1521 1521 1522 1522 1523 1523 1523 1523 1523 1522 1522 1521 1520 1519 1519 1518 1517 1517 1516
1496 1505 1507 1527 1533 1541 1532 1518 1503 1491 1491 1491 1492 1494 1495 1497 1498 1500 1502 1503 1505 1507 1509 1510 1512 1514 1515 1516 1517 1518 1519 1520 1520 1521 1521 1522 1522 1522 1521 1521 1520 1520 1519 1518 1518 1517 1516 1516 1515
1487 1495 1512 1527 1542 1548 1537 1527 1520 1502 1497 1493 1493 1494 1495 1496 1497 1498 1500 1502 1503 1505 1507 1509 1510 1512 1513 1514 1516 1516 1517 1518 1519 1520 1520 1520 1520 1520 1520 1519 1519 1518 1518 1517 1516 1516 1515 1514 1513
1494 1498 1509 1524 1529 1544 1548 1534 1500 1498 1494 1493 1492 1492 1493 1494 1496 1497 1499 1500 1502 1504 1506 1508 1509 1511 1512 1513 1514 1515 1516 1517 1517 1518 1518 1518 1518 1518 1518 1518 1517 1517 1516 1516 1515 1514 1513 1512 1511
1487 1494 1506 1523 1529 1532 1538 1529 1492 1493 1492 1491 1492 1492 1492 1493 1494 1495 1497 1499 1501 1503 1505 1507 1508 1509 1511 1511 1512 1513 1514 1515 1515 1515 1516 1516 1516 1516 1516 1516 1515 1515 1514 1514 1513 1512 1511 1510 1509